Location: Bremen
(53.0793°N, 8.8017°E)
Time: 03:19:21
(UTC+01:00)

Transit 2A - Pass Details

Date: 05 December 2021
Orbit: 591 x 967 km, 66.7° (Epoch: 17 January)

Event Time Altitude Azimuth Distance (km) Brightness Sun altitude
Exits shadow 06:05:01 17° 332° (NNW) 2,240 8.0 -19.3°
Maximum altitude 06:08:52 29° 21° (NNE) 1,686 7.8 -18.7°
Drops below altitude 10° 06:14:22 10° 80° (E) 2,698 9.8 -17.9°
Sets 06:17:16 0° 92° (E) 3,618 11.1 -17.5°
